"Pseudo-MPEC" for P21ZMYz

Created 2024 Oct 2 4:22:14 UT using Find_Orb

Click here for an explanation of pseudo-MPECs

 
 Astrometry: 
     P21ZMYz* C2024 10 01.29855722 43 28.940-06 49 49.45   ~A19M 20.74wXNEOCPF52
     P21ZMYz* C2024 10 01.29987722 43 29.214-06 49 58.16   ~A19b 21.47wXNEOCPF52
     P21ZMYz  C2024 10 01.31060222 43 31.640-06 51 12.89   ~A19M 20.81wXNEOCPF52
     P21ZMYz  C2024 10 01.31192422 43 31.942-06 51 21.97   ~A19b 21.08wXNEOCPF52
     P21ZMYz  C2024 10 01.32269222 43 34.329-06 52 36.05   ~A19Mx20.74wXNEOCPF52
     P21ZMYz  C2024 10 01.32401422 43 34.669-06 52 46.28   ~A19b 21.27wXNEOCPF52
     P21ZMYz  C2024 10 01.33474922 43 37.050-06 54 00.13   ~A19M 20.93wXNEOCPF52
     P21ZMYz  C2024 10 01.33607122 43 37.346-06 54 09.57   ~A19b 21.00wXNEOCPF52
     P21ZMYz  C2024 10 01.39825222 43 51.340-07 01 21.77   ~A1M7 20.79GVNEOCPF51
     P21ZMYz  C2024 10 01.39889222 43 51.471-07 01 26.11   ~A1M7 21.13GVNEOCPF51
     P21ZMYz KC2024 10 02.10222922 47 14.482-08 25 20.57   ~A23M 20.96GVNEOCPI52
     P21ZMYz KC2024 10 02.10795522 47 16.022-08 26 02.69   ~A23M       VNEOCPI52
     P21ZMYz KC2024 10 02.11452722 47 17.718-08 26 51.32   ~A23M 20.75GVNEOCPI52

Station data:
(F51) Pan-STARRS 1, Haleakala  (N20.707234 W156.255910)  US/Hawaii.
   Observers J. Bulger, T. Lowe, A. Schultz, M. Willman. Measurers K.
   Chambers, S. Chastel, T. de Boer, L. Denneau, J. Fairlamb, H. Flewelling,
   M. Huber, C.-C. Lin, E. Magnier, Y. Ramanjooloo, R. Wainscoat, R. Weryk.
   1.8-m Ritchey-Chrétien + CCD.
(F52) Pan-STARRS 2, Haleakala  (N20.707382 W156.255910)  US/Hawaii.
   Observers J. Bulger, T. Dukes, T. Lowe, A. Schultz, M. Willman. Measurers
   K. Chambers, S. Chastel, T. de Boer, L. Denneau, J. Fairlamb, H.
   Flewelling, M. Huber, C.-C. Lin, E. Magnier, Y. Ramanjooloo, R. Wainscoat,
   R. Weryk. 1.8-m Ritchey-Chrétien + CCD.
(I52) Steward Observatory, Mt. Lemmon Station  (N32.442570 W110.788920)
   US/Arizona.  Observers T. A. Pruyne, B. M. Africano, E. J. Christensen, G.
   A. Farneth, D. C. Fuls, A. R. Gibbs, A. D. Grauer, H. Gröller, J. A.
   Johnson, R. A. Kowalski, S. M. Larson, G. J. Leonard, D. Rankin, R. L.
   Seaman, F. C. Shelly, K. W. Wierzchoś. 1.0-m prime focus + CCD.

Orbital elements:  P21ZMYz
   Perihelion 2024 Nov 2.74285 +/- 0.0371 TT = 17:49:42 (JD 2460617.24285)
Epoch 2024 Oct  2.0 TT = JDT 2460585.5   Earth MOID: 0.0524      AutoNEOCP
M 345.02310510 +/- 0.11             (J2000 ecliptic)
n   0.47181941 +/- 0.00403          Peri.  214.84018 +/- 0.09
a   1.63412589 +/- 0.00928          Node   186.79128 +/- 0.006
e   0.3780990 +/- 0.00384           Incl.    9.22720 +/- 0.025
P   2.089/762.989d         H 25.21  G  0.15   U  9.0
q 1.01626445 +/- 0.000558    Q 2.25198733 +/- 0.019
12 of 13 observations 2024 Oct. 1-2 (19.6 hr); mean residual 0".21
Residuals in arcseconds: 
241001 F52  .12+  .30-    241001 F52  .27+  .28-    241002 I52  .55-  .05+    
241001 F52  .23-  .16+    241001 F52  .09-  .44+    241002 I52  .28+  .10+    
241001 F52  .03-  .06-    241001 F52  .09-  .19+    241002 I52  .27+  .13-    
241001 F52  .05+  .04+    241001 F51  .10+  .10-    
241001 F52( .38-  .76+)   241001 F51  .11-  .00     

Ephemerides (geocentric):
Date (UTC) HH   RA             Dec           delta  r     elong  mag " sig PA
---- --------  ------------   ------------  ------ ------ -----  --- --------
2024 10 02 04  22 47 28.542   -08 32 00.65  .07577 1.0677 150.9 21.0 .407 148
2024 10 02 05  22 47 40.675   -08 37 06.43  .07566 1.0676 150.9 21.0 .489 148
2024 10 02 06  22 47 52.856   -08 42 13.04  .07555 1.0675 150.9 21.0 .577 148
2024 10 02 07  22 48 05.087   -08 47 20.49  .07544 1.0674 150.8 21.0 .673 148
2024 10 02 08  22 48 17.368   -08 52 28.77  .07533 1.0672 150.8 21.0 .777 148
2024 10 02 09  22 48 29.698   -08 57 37.89  .07522 1.0671 150.8 21.0 .887 148
2024 10 02 10  22 48 42.078   -09 02 47.85  .07510 1.0670 150.7 21.0 1.00 148
2024 10 02 11  22 48 54.509   -09 07 58.65  .07499 1.0668 150.7 21.0 1.13 148
2024 10 02 12  22 49 06.989   -09 13 10.29  .07488 1.0667 150.7 20.9 1.26 148
2024 10 02 13  22 49 19.520   -09 18 22.76  .07477 1.0666 150.6 20.9 1.40 148
2024 10 02 14  22 49 32.102   -09 23 36.08  .07466 1.0665 150.6 20.9 1.55 148
2024 10 02 15  22 49 44.735   -09 28 50.23  .07455 1.0663 150.6 20.9 1.71 148
2024 10 02 16  22 49 57.419   -09 34 05.23  .07444 1.0662 150.5 20.9 1.87 148
2024 10 02 17  22 50 10.154   -09 39 21.07  .07434 1.0661 150.5 20.9 2.04 148
2024 10 02 18  22 50 22.941   -09 44 37.75  .07423 1.0659 150.5 20.9 2.22 148
2024 10 02 19  22 50 35.780   -09 49 55.28  .07412 1.0658 150.4 20.9 2.41 148
2024 10 02 20  22 50 48.671   -09 55 13.65  .07401 1.0657 150.4 20.9 2.60 148
2024 10 02 21  22 51 01.614   -10 00 32.86  .07390 1.0656 150.4 20.9 2.80 148
2024 10 02 22  22 51 14.609   -10 05 52.91  .07379 1.0654 150.3 20.9 3.01 148
2024 10 02 23  22 51 27.657   -10 11 13.81  .07369 1.0653 150.3 20.9 3.23 148
2024 10 03 00  22 51 40.758   -10 16 35.56  .07358 1.0652 150.3 20.9 3.46 148
2024 10 03 01  22 51 53.913   -10 21 58.15  .07347 1.0651 150.2 20.9 3.69 148
2024 10 03 02  22 52 07.120   -10 27 21.58  .07337 1.0649 150.2 20.9 3.94 148
2024 10 03 03  22 52 20.381   -10 32 45.86  .07326 1.0648 150.2 20.9 4.19 148
2024 10 03 04  22 52 33.696   -10 38 10.98  .07316 1.0647 150.1 20.9 4.45 148
2024 10 03 05  22 52 47.065   -10 43 36.96  .07305 1.0646 150.1 20.9 4.72 148
2024 10 03 06  22 53 00.488   -10 49 03.77  .07294 1.0644 150.1 20.9 5.00 148
2024 10 03 07  22 53 13.965   -10 54 31.44  .07284 1.0643 150.0 20.9 5.28 148
2024 10 03 08  22 53 27.498   -10 59 59.94  .07274 1.0642 150.0 20.9 5.58 148
2024 10 03 09  22 53 41.085   -11 05 29.30  .07263 1.0640 150.0 20.9 5.88 148
2024 10 03 10  22 53 54.727   -11 10 59.50  .07253 1.0639 149.9 20.9 6.20 148
2024 10 03 11  22 54 08.425   -11 16 30.55  .07242 1.0638 149.9 20.9 6.52 148
2024 10 03 12  22 54 22.178   -11 22 02.44  .07232 1.0637 149.9 20.9 6.85 148
2024 10 03 13  22 54 35.987   -11 27 35.18  .07222 1.0635 149.8 20.9 7.19 148
2024 10 03 14  22 54 49.852   -11 33 08.77  .07211 1.0634 149.8 20.9 7.54 148
2024 10 03 15  22 55 03.774   -11 38 43.20  .07201 1.0633 149.7 20.9 7.89 148
2024 10 03 16  22 55 17.752   -11 44 18.48  .07191 1.0632 149.7 20.9 8.26 148
2024 10 03 17  22 55 31.787   -11 49 54.60  .07181 1.0630 149.7 20.9 8.64 148
2024 10 03 18  22 55 45.879   -11 55 31.57  .07171 1.0629 149.6 20.9 9.03 148
2024 10 03 19  22 56 00.028   -12 01 09.38  .07160 1.0628 149.6 20.9 9.42 148
2024 10 03 20  22 56 14.235   -12 06 48.04  .07150 1.0627 149.5 20.9 9.83 148
2024 10 03 21  22 56 28.499   -12 12 27.54  .07140 1.0626 149.5 20.9 10.2 148
2024 10 03 22  22 56 42.821   -12 18 07.89  .07130 1.0624 149.5 20.9 10.7 148
2024 10 03 23  22 56 57.202   -12 23 49.08  .07120 1.0623 149.4 20.9 11.1 148
2024 10 04 00  22 57 11.641   -12 29 31.11  .07110 1.0622 149.4 20.9 11.5 148
2024 10 04 01  22 57 26.139   -12 35 13.99  .07100 1.0621 149.3 20.9 12.0 148
2024 10 04 02  22 57 40.696   -12 40 57.71  .07090 1.0619 149.3 20.9 12.5 148
2024 10 04 03  22 57 55.311   -12 46 42.27  .07081 1.0618 149.3 20.9 12.9 148